Weather - Helsinki Query any day in the database

Current weather  

Weather data for a selected day (2006-01-01 -2020-10-30)
Enter date:     <-     scroll days         ->
day curves
Low temperature°C -19.009:50
High temperature°C -12.017:50
Low wind chill°C -26.408:20
Average temperature°C -15.4 
High wind speed (10 min) m/s 5.017:50
Low pressurehPa 1022.012:20
High pressurehPa 1026.023:50
Low R.H% 7705:20
High R.H% 9214:20
Day weather data as a table
Date Time Temp
°C
Chill
°C
Pressure
hPA
Wind
m/s
Hum
%
Precip
mm
2009-12-16 23:50:00 -13.0  -20.3  1026.0 4.0 84 -
2009-12-16 23:20:00 -13.0  -20.3  1025.0 4.0 78 -
2009-12-16 22:50:00 -13.0  -20.3  1025.0 4.0 84 -
2009-12-16 22:20:00 -13.0  -20.3  1025.0 4.0 84 -
2009-12-16 21:50:00 -13.0  -19.1  1025.0 3.0 84 -
2009-12-16 21:20:00 -13.0  -20.3  1025.0 4.0 84 -
2009-12-16 20:50:00 -14.0  -21.5  1024.0 4.0 84 -
2009-12-16 20:20:00 -14.0  -21.5  1024.0 4.0 77 -
2009-12-16 19:50:00 -14.0  -21.5  1024.0 4.0 84 -
2009-12-16 19:20:00 -15.0  -22.7  1024.0 4.0 84 -
2009-12-16 18:50:00 -14.0  -21.5  1024.0 4.0 84 -
2009-12-16 18:20:00 -13.0  -20.3  1024.0 4.0 84 -
2009-12-16 17:50:00 -12.0  -19.9  1023.0 5.0 85 -
2009-12-16 17:20:00 -13.0  -20.3  1023.0 4.0 84 -
2009-12-16 16:50:00 -14.0  -21.5  1023.0 4.0 84 -
2009-12-16 16:20:00 -13.0  -20.3  1023.0 4.0 84 -
2009-12-16 15:50:00 -12.0  -17.9  1023.0 3.0 85 -
2009-12-16 15:20:00 -13.0  -20.3  1023.0 4.0 84 -
2009-12-16 14:50:00 -14.0  -21.5  1023.0 4.0 84 -
2009-12-16 14:20:00 -13.0  -19.1  1023.0 3.0 92 -
2009-12-16 13:50:00 -13.0  -19.1  1023.0 3.0 84 -
2009-12-16 13:20:00 -13.0  -19.1  1023.0 3.0 92 -
2009-12-16 12:50:00 -13.0  -19.1  1023.0 3.0 92 -
2009-12-16 12:20:00 -13.0  -20.3  1022.0 4.0 84 -
2009-12-16 11:50:00 -14.0  -18.8  1022.0 2.0 84 -
2009-12-16 11:20:00 -16.0  -21.1  1022.0 2.0 77 -
2009-12-16 10:50:00 -17.0  -23.9  1022.0 3.0 84 -
2009-12-16 10:20:00 -18.0  -23.4  1022.0 2.0 84 -
2009-12-16 09:50:00 -19.0  -24.6  1022.0 2.0 84 -
2009-12-16 09:20:00 -18.0  -25.1  1022.0 3.0 84 -
2009-12-16 08:50:00 -18.0  -25.1  1022.0 3.0 84 -
2009-12-16 08:20:00 -19.0  -26.4  1022.0 3.0 84 -
2009-12-16 07:50:00 -19.0  -24.6  1022.0 2.0 84 -
2009-12-16 07:20:00 -18.0  -25.1  1022.0 3.0 84 -
2009-12-16 06:50:00 -19.0  -24.6  1022.0 2.0 84 -
2009-12-16 05:50:00 -19.0  -24.6  1022.0 2.0 84 -
2009-12-16 05:20:00 -18.0  -23.4  1022.0 2.0 77 -
2009-12-16 04:50:00 -18.0  -25.1  1022.0 3.0 84 -
2009-12-16 04:20:00 -18.0  -23.4  1022.0 2.0 84 -
2009-12-16 03:50:00 -18.0  -20.8  1022.0 1.0 84 -
2009-12-16 03:20:00 -18.0  -20.8  1022.0 1.0 84 -
2009-12-16 02:50:00 -18.0  -20.8  1023.0 1.0 84 -
2009-12-16 02:20:00 -18.0  -20.8  1023.0 1.0 84 -
2009-12-16 01:50:00 -17.0  -22.3  1023.0 2.0 84 -
2009-12-16 01:20:00 -17.0  -19.7  1023.0 1.0 84 -
2009-12-16 00:50:00 -17.0  -22.3  1023.0 2.0 84 -
2009-12-16 00:20:00 -16.0  -18.6  1023.0 1.0 84 -
Unit conversions: